RH
75 73 81 93 90 82 93 102 98 91 84 80 74 68 64 60 58 57 58 60 60 62 65 71 79 80 71 67 71 76 78 72 60 49 42 38 34 31 30 29 29 30 30 32 37 42 43 40 36 35 36 42 44 41 38 35 33 31 32 32 29 26 28
81 72 76 90 88 80 87 95 97 94 89 88 86 80 75 70 66 64 63 65 65 64 62 60 59 58 58 58 65 78 81 69 56 50 44 38 34 30 29 29 30 30 30 31 33 37 40 40 40 39 37 38 39 37 36 34 33 32 33 33 31 27 27
92 80 78 86 83 79 86 90 90 91 91 94 94 89 84 79 75 70 65 63 60 57 51 46 47 52 52 57 73 87 81 66 57 50 44 38 33 30 31 31 31 31 30 31 32 33 35 37 39 40 39 38 36 33 32 31 31 32 33 33 31 28 28
92 81 81 83 80 80 85 88 89 91 94 96 94 87 80 74 67 59 55 54 54 54 52 52 55 56 58 70 88 92 79 65 57 49 43 37 32 32 33 33 33 33 32 33 33 35 35 36 36 36 37 37 38 36 33 32 32 31 32 32 31 30 31
89 81 82 82 80 83 88 92 94 95 97 98 93 85 74 65 61 57 58 60 62 63 65 68 70 68 74 87 96 91 77 65 56 49 42 35 34 35 35 35 35 33 34 35 35 36 36 37 36 35 34 34 35 37 36 35 34 33 31 30 30 31 33
91 86 87 88 88 90 94 98 99 100 102 102 99 92 84 76 71 69 67 67 68 70 73 76 79 81 88 96 97 88 75 66 57 48 41 36 36 37 36 37 36 34 35 35 35 36 35 35 35 33 32 32 33 33 33 33 31 31 30 30 31 32 36
96 95 95 96 97 98 100 100 99 100 101 101 102 101 97 90 83 80 78 78 81 83 86 87 89 93 98 97 92 82 73 66 56 46 40 38 38 38 38 38 36 35 34 34 34 34 34 33 33 32 31 30 30 30 31 31 31 31 30 31 33 34 40
97 98 100 101 101 101 102 103 103 102 100 100 101 101 101 99 95 94 95 97 99 99 99 99 98 97 93 88 84 79 72 62 51 43 40 39 39 37 37 38 38 36 35 34 34 32 32 32 31 31 31 29 29 29 30 32 33 34 34 34 36 36 40
98 99 100 100 102 103 104 104 105 104 101 100 101 101 101 101 101 101 101 101 102 99 95 92 90 86 81 80 80 75 64 53 46 42 39 38 37 35 36 39 39 37 36 34 33 32 31 31 30 30 30 31 32 31 32 33 34 36 38 39 39 41 44
100 100 101 101 102 107 108 105 104 103 101 101 102 102 101 100 101 101 98 97 96 90 85 84 82 77 75 75 73 65 54 48 45 41 39 37 34 34 37 39 38 37 37 34 33 32 30 29 29 29 30 32 33 35 37 37 37 38 39 41 41 42 45
99 99 100 101 100 103 106 104 102 100 100 101 101 100 99 99 100 98 96 96 92 84 82 82 77 72 71 68 64 58 51 47 44 41 39 35 32 34 36 37 37 37 36 36 34 31 30 29 28 28 30 32 33 36 39 40 41 40 41 43 44 44 45
101 101 100 101 100 101 103 104 104 103 102 103 102 101 101 99 98 95 90 85 77 72 72 69 64 63 63 60 57 54 50 46 43 40 37 33 31 33 34 35 36 36 36 37 34 31 30 29 27 28 30 31 34 36 37 39 41 42 42 44 45 47 48
99 97 94 93 92 91 91 91 94 95 95 96 98 99 99 97 92 83 74 66 59 56 56 53 49 47 46 47 49 49 46 43 42 39 35 33 32 32 33 35 35 35 37 37 35 32 31 29 28 29 30 32 35 37 37 37 38 40 43 44 45 47 49
98 95 90 87 86 87 87 85 86 88 89 90 91 90 87 81 71 60 53 50 44 40 40 38 34 30 31 34 37 40 42 42 41 38 35 34 34 34 34 36 37 38 40 39 36 33 31 30 29 30 32 34 37 38 37 35 36 39 42 46 48 48 48
101 99 97 96 97 98 98 98 98 98 95 91 85 77 66 56 48 42 40 37 33 30 30 28 26 26 27 29 33 39 43 43 39 36 35 36 37 37 38 41 43 44 45 41 36 33 32 30 30 32 33 35 39 39 37 36 37 40 42 44 47 48 49
102 102 102 101 101 100 100 99 97 92 84 74 64 54 45 40 37 35 32 29 28 27 25 25 26 26 28 34 41 46 46 42 38 35 37 39 40 41 44 49 52 52 50 42 35 33 32 31 32 33 34 37 39 39 37 36 38 42 43 43 44 45 46
103 102 102 101 99 96 91 84 76 68 58 49 43 38 34 33 33 31 29 28 27 26 25 26 27 31 39 47 51 50 45 40 37 37 40 42 44 47 53 60 62 57 49 39 35 34 33 32 34 35 36 40 41 40 38 36 38 42 42 41 41 41 41
103 102 101 101 98 92 84 72 59 51 45 40 37 35 33 32 31 29 29 28 27 27 28 28 32 42 53 58 55 50 43 39 39 42 44 45 49 55 65 71 68 57 45 36 34 35 34 36 37 38 41 43 44 44 40 37 39 41 41 40 39 39 39
102 101 101 100 96 92 85 73 60 51 46 42 39 36 35 34 32 31 31 30 30 30 30 33 41 52 61 62 57 49 43 43 45 47 48 51 55 63 74 76 67 53 42 36 35 37 37 39 40 41 44 46 46 46 43 40 40 40 40 40 39 40 40
102 100 100 97 92 88 80 69 61 54 49 44 41 39 38 36 35 34 34 34 33 33 35 40 48 56 64 64 57 50 48 49 50 52 54 56 61 71 78 75 63 50 40 37 38 40 40 41 42 43 45 46 46 46 45 42 40 40 41 40 41 41 41
102 99 96 93 88 80 69 60 55 51 47 44 41 40 39 39 38 38 37 37 37 36 41 48 54 61 66 62 55 53 54 53 54 57 58 60 68 78 78 70 58 46 39 39 41 42 43 44 44 45 46 45 43 43 45 45 43 42 43 42 42 43 42
101 98 94 90 83 73 62 55 50 45 43 42 40 40 41 41 41 41 40 40 40 43 49 56 62 66 66 60 56 57 56 57 60 61 62 68 78 80 72 62 52 43 40 42 43 45 46 47 47 47 46 45 43 43 45 45 45 44 43 44 44 43 42
98 95 90 82 74 66 59 52 46 42 41 40 42 43 43 43 44 44 43 43 47 54 61 66 68 68 66 63 61 61 61 65 67 66 70 78 80 72 62 55 48 43 43 45 47 49 49 49 49 49 48 48 47 46 45 44 45 45 44 44 43 40 38
96 90 81 74 66 59 52 46 42 40 40 41 43 45 45 45 46 46 47 51 59 67 72 73 73 72 71 68 66 67 70 72 71 75 81 81 71 62 56 51 46 46 48 50 51 52 51 51 51 51 52 52 50 47 46 45 46 47 46 43 39 35 32
94 84 73 66 59 51 45 41 40 39 40 41 43 44 46 46 48 50 54 62 69 75 77 78 79 78 73 70 71 75 76 77 80 85 82 71 63 58 53 49 48 51 52 54 55 54 52 52 53 54 55 54 51 48 47 48 49 46 41 37 32 29 27
93 78 67 60 53 47 43 40 38 38 39 41 43 45 47 47 48 52 61 71 76 78 80 81 81 77 73 75 80 81 82 86 89 83 72 64 61 56 50 50 53 55 56 57 57 54 53 54 55 57 56 53 50 49 50 49 46 40 34 30 28 26 25
90 74 65 62 55 48 44 41 39 38 39 41 44 46 47 48 52 59 69 76 77 78 80 81 80 78 79 84 86 88 92 93 84 72 65 63 58 51 50 54 56 58 59 60 57 54 54 56 58 57 54 51 50 52 52 46 39 33 30 28 27 27 26
88 71 63 63 59 51 45 43 42 40 40 43 45 46 49 53 60 68 74 76 76 78 81 83 85 86 88 91 93 97 95 84 72 67 65 60 52 50 54 56 58 61 61 58 55 56 57 59 58 56 52 51 54 54 48 41 34 30 29 30 29 29 28
91 76 65 62 59 53 50 48 45 42 42 44 45 47 52 59 65 70 73 75 78 83 88 92 93 92 93 97 99 95 84 72 69 67 61 54 51 53 57 59 62 63 59 57 58 60 61 59 57 54 53 55 56 51 43 37 33 32 32 32 31 28 26
93 81 70 66 63 60 57 53 51 49 47 46 47 50 56 63 69 75 80 83 86 91 95 98 96 96 100 101 94 82 73 71 69 63 55 52 54 57 61 63 64 62 59 61 63 62 60 58 55 54 56 58 54 46 39 35 34 34 34 31 28 25 23
97 87 78 75 73 71 66 61 57 56 54 52 53 57 63 71 79 86 90 92 95 97 100 100 101 102 101 92 81 74 73 70 64 57 54 55 59 63 65 64 64 63 64 65 64 61 59 57 56 57 59 57 49 42 37 35 35 35 32 27 25 23 22
100 93 85 83 82 80 78 74 68 63 61 61 63 69 76 83 89 94 98 101 102 102 101 101 100 95 87 79 76 75 71 63 57 55 57 61 65 66 65 65 67 68 68 65 62 61 60 58 59 62 60 54 47 41 37 35 35 34 29 25 25 24 23
100 96 92 92 92 89 87 83 78 74 72 73 77 84 90 95 98 101 102 101 98 95 95 93 87 82 79 79 77 71 63 57 57 59 63 66 68 66 66 70 72 70 66 63 62 62 61 60 63 64 58 52 47 41 37 36 36 32 28 27 27 25 23
100 102 102 103 104 100 92 86 84 83 82 85 91 96 99 101 101 99 95 91 89 89 88 85 82 82 83 80 72 63 58 59 61 65 67 68 67 68 72 74 72 68 65 64 65 64 62 64 66 62 55 51 47 40 38 38 35 30 30 30 27 23 21
105 109 109 106 106 100 92 89 90 90 89 93 97 99 99 98 94 91 89 87 88 90 89 87 88 86 81 72 64 59 60 63 66 68 68 68 70 74 75 73 69 67 67 68 67 66 66 68 67 60 54 51 46 41 40 39 34 31 31 29 25 22 19
111 113 109 106 104 98 94 94 95 95 96 95 95 95 95 93 91 90 89 90 92 95 95 93 88 80 72 66 61 61 65 69 69 69 69 73 76 75 72 71 70 70 71 71 69 70 72 70 64 58 55 51 46 43 42 38 34 33 32 27 22 21 21
109 109 106 104 102 101 101 102 102 102 102 100 100 100 98 96 95 94 94 97 100 98 93 86 78 72 67 63 64 69 72 71 69 71 75 77 75 72 71 73 73 73 74 73 73 75 73 67 62 59 55 51 47 45 43 39 36 34 31 25 21 21 23
Wind_Speed
48 49 49 47 45 44 45 45 45 43 43 42 43 43 44 44 45 46 47 49 50 52 54 56 57 57 56 55 55 58 61 61 60 58 55 54 53 52 50 48 46 45 45 46 46 48 50 49 47 45 44 44 45 45 44 45 44 44 45 46 46 43 41
49 51 51 49 48 47 48 48 47 47 46 44 43 43 44 44 45 46 48 49 51 53 54 55 56 55 55 55 56 60 63 62 59 57 56 56 55 53 51 49 47 45 45 45 45 46 48 50 50 49 46 45 45 46 46 47 47 47 47 46 46 44 41
49 50 50 50 49 50 51 50 49 48 47 45 44 44 44 44 45 46 48 49 50 51 52 53 54 55 55 56 58 62 63 61 58 57 57 57 55 53 52 50 49 48 48 47 47 47 47 48 49 49 48 48 48 49 49 49 50 50 50 48 47 45 42
49 49 50 50 50 52 52 51 49 48 47 46 45 45 45 45 45 46 47 48 49 50 51 53 54 55 56 58 61 64 63 59 58 58 58 56 54 52 51 50 49 49 49 49 48 47 48 48 49 50 50 50 52 52 53 53 53 52 51 49 47 45 42
49 50 50 50 50 51 51 49 48 47 47 46 46 46 46 45 46 46 47 47 48 49 51 53 55 57 58 60 63 65 62 59 59 59 58 54 52 51 50 49 49 49 49 48 48 48 49 50 52 53 53 54 54 55 55 54 54 53 51 48 46 43 41
49 50 50 49 49 48 47 47 46 46 46 46 46 45 45 46 47 47 47 48 48 50 51 53 56 58 60 62 64 63 61 60 60 59 56 52 50 50 49 48 48 48 48 48 49 50 51 53 55 56 57 56 56 56 56 54 53 52 50 47 45 42 40
49 49 48 48 47 46 45 46 46 47 48 48 48 48 49 50 50 50 50 50 51 52 54 55 57 60 62 63 63 61 60 60 59 57 53 51 50 50 49 48 48 48 49 50 51 52 54 56 58 59 59 57 56 55 55 54 52 50 48 46 44 41 38
50 49 49 49 47 47 46 47 48 50 52 52 53 53 53 52 52 52 52 52 53 55 56 58 59 60 61 60 59 58 59 59 57 54 51 50 49 49 49 48 48 50 50 51 53 54 57 59 59 60 59 57 56 54 53 52 51 49 47 44 43 41 37
49 49 49 49 49 48 47 48 49 51 53 55 56 56 55 54 53 53 53 52 53 55 56 57 58 58 57 57 57 57 58 57 54 51 49 49 50 50 49 48 49 51 52 53 55 57 59 60 59 58 57 56 55 54 52 51 49 47 45 43 41 40 37
47 47 48 49 49 49 49 49 50 51 53 55 57 57 57 57 55 55 54 54 54 55 55 55 55 55 55 55 56 57 56 54 52 50 49 50 51 50 49 49 51 52 54 55 57 59 60 60 59 56 55 54 52 51 49 49 47 44 43 42 40 39 37
47 47 47 48 49 50 50 51 52 53 55 56 58 59 59 59 58 57 57 56 55 55 54 55 55 55 55 56 56 55 54 52 51 50 51 52 52 51 50 52 53 54 56 58 60 61 62 60 58 55 54 52 50 48 47 46 46 44 41 40 39 39 37
49 49 49 50 51 52 53 54 55 56 57 58 59 60 60 60 59 57 57 57 56 55 55 56 57 56 56 56 55 54 53 52 51 51 52 53 52 52 53 54 56 57 59 61 63 64 63 61 58 56 54 52 50 48 46 45 44 43 41 39 38 38 38
50 50 51 52 52 52 53 54 55 57 57 58 58 58 58 57 56 56 56 56 55 55 56 57 57 57 57 56 55 54 53 52 52 52 53 53 54 55 56 57 59 60 62 64 66 66 65 61 58 57 55 53 50 48 47 45 43 42 41 40 38 37 37
45 46 47 48 48 49 50 51 53 54 54 54 54 54 54 54 55 55 55 55 55 56 57 57 58 58 57 56 54 53 52 52 52 53 54 55 56 58 59 61 62 64 66 68 69 68 64 61 59 57 55 53 51 49 48 46 44 42 41 39 38 37 37
41 42 42 43 44 45 47 48 49 50 50 50 51 52 52 54 54 55 55 55 56 57 57 58 59 58 57 55 53 52 51 52 52 54 55 57 59 60 62 63 65 67 69 71 71 68 64 61 59 57 55 53 52 50 49 46 44 43 41 39 38 38 37
42 42 42 42 43 44 45 46 47 48 48 49 51 51 52 53 54 55 55 56 57 58 58 58 58 57 56 54 52 51 51 52 54 55 57 58 61 63 64 66 68 70 73 73 71 67 64 62 60 58 56 54 53 52 50 47 45 42 40 39 38 38 38
44 44 44 44 44 44 44 45 46 47 48 49 50 51 52 53 54 55 57 57 58 58 58 57 56 55 54 52 51 51 52 54 55 57 58 60 62 64 66 68 71 73 74 74 71 67 64 63 61 59 57 56 55 54 52 49 46 43 40 39 38 38 38
44 44 44 44 44 44 45 46 47 48 49 50 51 51 52 54 55 56 57 57 57 57 57 56 54 53 51 51 52 53 54 55 57 58 60 62 64 66 68 71 73 75 76 74 70 67 65 64 62 60 59 58 57 55 53 50 47 44 41 40 39 39 38
45 45 45 45 45 46 47 48 49 50 51 52 52 53 54 55 56 56 56 56 57 57 56 55 54 52 51 52 54 55 56 57 59 60 62 64 66 68 71 72 74 76 76 73 70 68 67 65 63 61 60 59 58 56 53 51 48 46 44 43 42 42 42
46 46 46 47 47 48 50 51 52 53 53 54 54 55 55 55 56 56 55 56 56 57 56 55 54 53 52 53 55 56 57 59 61 62 64 66 68 70 72 74 76 77 75 73 70 69 68 66 64 63 62 61 59 56 53 51 49 47 47 46 46 46 47
45 46 47 47 48 50 51 52 53 54 55 55 55 55 55 55 55 54 55 56 56 56 55 55 54 54 53 54 56 58 59 61 62 64 66 68 71 73 74 76 77 76 74 72 71 69 68 67 65 64 63 62 60 57 54 52 51 50 50 50 50 50 51
45 46 47 48 49 51 53 53 55 55 56 56 56 55 55 54 54 54 55 56 56 56 56 55 55 54 55 56 58 59 61 63 64 66 68 71 73 75 76 77 77 76 74 72 71 70 69 67 66 65 64 63 61 59 56 54 53 53 52 53 54 54 55
46 47 48 49 51 52 53 54 55 55 56 55 55 54 54 53 54 55 56 56 56 56 56 55 55 55 56 58 60 61 63 65 66 68 71 73 76 77 77 77 76 75 73 72 71 70 69 67 67 66 65 64 63 61 58 57 56 55 56 56 57 58 58
49 49 50 51 52 52 53 53 54 54 54 54 53 53 54 54 54 55 55 55 56 55 55 55 55 56 58 60 62 63 65 66 68 71 73 75 77 77 76 76 75 74 73 72 71 70 69 68 67 66 66 66 65 62 60 59 58 58 59 59 60 60 59
50 51 51 51 51 51 52 52 53 53 53 53 53 53 54 54 54 55 55 55 55 55 54 55 56 58 60 62 63 65 66 68 70 73 75 76 76 76 75 74 74 73 72 72 71 70 69 68 68 67 68 67 65 63 62 60 60 60 61 61 60 59 58
49 49 49 49 50 50 51 51 52 53 53 53 53 54 54 54 55 55 55 55 55 55 55 57 59 61 62 63 65 66 68 70 73 75 76 76 75 75 74 73 73 72 72 71 70 70 69 69 69 69 68 67 65 63 63 62 62 62 61 60 59 58 57
47 48 48 49 50 50 51 51 52 52 52 53 53 54 54 55 55 55 55 55 55 56 57 59 61 63 64 65 66 68 70 72 74 75 75 75 74 73 73 72 72 71 71 70 70 69 69 69 70 70 68 66 64 64 64 65 64 62 60 59 58 57 55
49 49 50 50 51 51 51 51 51 51 52 53 53 54 54 54 55 55 55 56 57 58 59 61 62 64 65 66 67 69 72 74 75 75 74 74 73 72 72 71 71 70 70 69 69 69 70 70 70 69 67 65 64 65 66 67 65 63 61 59 58 56 54
52 52 52 52 52 51 51 51 52 52 52 53 53 54 54 54 55 55 56 57 58 59 60 62 63 65 66 68 70 72 74 75 74 74 73 73 72 71 71 70 70 69 69 69 69 70 70 70 69 67 66 65 65 66 67 67 66 64 61 58 56 54 52
52 52 52 51 51 51 52 52 53 53 53 53 54 54 55 55 56 56 58 59 60 60 61 63 65 67 69 70 72 74 74 74 73 73 72 71 71 70 70 69 69 68 69 69 70 70 70 70 68 66 65 65 66 67 66 66 66 64 61 57 54 52 49
50 50 50 50 51 52 53 53 54 54 54 55 55 56 56 56 57 58 59 60 61 62 63 66 68 70 71 72 73 73 72 72 72 71 71 70 70 69 68 68 68 68 68 69 70 70 69 68 67 65 65 66 67 67 67 66 65 63 59 55 52 50 47
53 53 51 51 52 53 54 55 55 56 56 56 56 57 57 58 59 60 61 62 63 65 67 69 70 70 71 71 71 71 71 70 70 70 69 68 68 68 67 67 67 67 69 69 69 69 69 67 65 65 66 67 68 68 67 65 63 61 58 54 51 48 46
55 55 53 54 55 56 57 57 57 57 57 57 57 58 58 59 60 61 63 64 65 67 68 69 69 70 70 70 70 69 69 69 69 68 67 67 67 66 66 66 66 67 68 68 68 69 68 66 64 65 66 67 68 68 67 65 62 59 57 54 50 47 44
54 55 56 57 58 58 58 58 57 57 58 58 58 59 60 61 62 64 65 65 66 66 67 68 69 69 69 68 68 68 68 67 67 66 66 66 65 65 65 65 66 67 67 68 68 68 66 64 64 65 66 67 68 68 67 65 62 58 55 52 49 45 42
56 57 58 58 58 58 58 58 58 58 59 59 60 61 62 63 64 64 65 65 65 66 67 68 68 68 68 67 68 67 66 66 65 65 65 65 64 64 64 65 66 66 67 68 67 66 64 63 64 64 65 66 67 67 66 64 61 57 53 50 47 44 40
59 59 59 59 59 59 58 58 58 59 60 60 61 62 63 64 64 64 64 64 65 66 67 67 67 67 67 67 66 65 64 64 64 64 64 63 63 63 64 64 65 66 67 67 66 64 63 63 63 63 64 66 67 66 66 64 60 56 52 49 45 42 39
58 57 57 57 57 56 56 57 58 59 61 61 62 63 63 64 65 65 65 65 65 66 66 66 66 66 66 65 64 63 63 64 64 63 62 62 62 63 64 64 65 66 66 65 64 63 62 62 62 62 63 65 66 66 65 63 60 56 52 48 44 40 37
Wind_Direction
266 270 274 276 279 281 285 288 290 292 292 290 289 288 288 288 286 286 285 285 287 288 289 289 290 291 295 300 304 309 313 316 318 319 318 320 322 324 325 325 324 324 323 321 318 317 316 316 316 315 314 312 310 309 309 308 308 309 310 309 307 302 296
264 267 271 274 277 279 283 287 290 291 292 292 290 289 289 289 289 289 288 288 289 290 290 290 290 292 296 299 302 309 314 316 317 318 318 320 322 324 325 325 325 324 323 321 319 317 315 315 315 315 314 311 309 308 308 308 308 309 309 309 306 302 297
264 266 269 273 276 279 282 285 288 289 291 291 290 289 290 290 290 290 290 290 291 293 293 293 293 295 297 298 301 308 314 315 316 317 318 321 323 323 324 325 325 325 323 321 319 318 316 315 315 315 315 313 311 309 308 308 308 309 309 308 306 302 297
265 267 270 273 276 279 282 284 286 287 288 288 288 288 289 290 291 292 293 294 295 296 296 296 296 295 295 297 301 308 312 313 315 316 318 321 322 323 324 324 325 325 323 322 321 320 319 318 316 315 315 313 312 310 309 309 308 308 308 306 304 301 296
266 268 272 274 276 279 281 283 284 285 287 288 288 289 290 292 293 294 295 296 297 298 298 297 296 295 295 297 302 307 310 312 314 316 318 320 321 322 323 323 325 325 324 323 322 321 320 319 317 316 314 313 311 309 308 308 307 306 305 304 301 298 294
265 268 271 273 275 277 279 281 282 283 285 288 289 291 293 294 296 296 297 298 299 299 298 297 296 295 296 299 302 306 308 310 313 315 317 318 319 320 321 322 324 325 324 323 322 321 319 318 316 314 313 311 310 308 307 306 305 304 303 301 299 296 291
265 266 268 270 273 275 277 279 279 280 283 285 287 290 292 295 296 297 298 299 299 298 297 296 296 296 297 300 303 305 307 310 312 315 316 317 318 319 319 321 323 324 323 322 321 319 318 317 316 314 312 311 309 308 306 305 304 303 301 299 296 293 288
264 265 267 268 270 273 276 277 277 279 281 282 285 287 290 293 294 295 295 296 295 295 294 294 295 296 299 301 304 306 308 310 312 314 315 316 316 317 318 320 323 323 323 322 320 319 318 317 316 315 313 312 310 308 306 305 303 301 299 296 292 290 285
266 266 267 268 270 273 275 276 276 277 279 281 283 285 288 291 292 293 294 294 295 294 294 295 297 299 301 304 306 307 308 310 312 314 314 314 315 316 318 320 322 322 322 322 321 320 319 318 317 315 314 313 312 310 308 305 303 301 298 294 290 287 283
266 268 269 271 273 274 275 276 276 277 279 281 283 285 287 290 291 293 294 295 296 297 297 299 300 302 304 305 306 307 309 311 313 313 312 313 314 316 318 319 320 321 322 322 322 321 320 319 318 316 315 314 313 311 309 307 305 302 299 295 290 285 280
267 268 270 272 274 276 276 276 277 278 279 280 282 284 285 288 290 293 295 296 297 298 299 300 301 303 304 305 307 308 310 311 312 311 311 312 314 316 318 319 320 321 322 323 323 322 321 320 318 317 316 314 313 311 310 308 306 303 300 296 292 286 280
266 268 270 271 273 274 275 275 276 277 278 279 281 282 284 286 289 292 294 296 297 298 299 300 302 303 304 306 308 309 310 310 310 309 310 313 315 317 319 320 320 321 322 323 323 323 322 321 319 318 317 315 313 312 310 308 305 303 300 296 291 287 282
266 267 269 271 273 274 275 275 276 277 278 280 282 284 286 287 289 292 294 296 298 299 300 301 302 303 305 307 309 309 309 308 308 309 311 314 316 319 320 321 321 322 324 324 324 324 323 321 320 319 318 316 315 313 311 308 305 302 298 295 291 286 281
269 270 271 272 274 275 276 277 277 278 280 282 284 286 288 290 292 293 295 297 299 300 300 301 302 303 305 307 308 308 307 307 308 310 312 315 318 320 321 322 323 324 325 325 325 324 322 321 320 319 318 317 316 315 313 309 306 302 297 293 289 284 280
274 274 275 275 276 277 278 278 279 281 283 285 287 289 291 293 294 295 297 298 300 300 300 301 303 304 306 306 306 306 305 306 308 311 313 316 319 321 322 323 324 325 326 325 324 323 322 321 320 319 318 318 317 316 314 311 307 302 298 292 287 282 277
275 276 277 277 278 279 280 281 282 284 287 289 291 293 294 295 296 297 298 299 300 300 301 302 303 305 306 306 305 305 305 307 309 312 314 317 319 321 323 324 325 325 325 324 324 322 321 320 320 320 319 319 318 317 315 312 308 303 298 294 288 283 277
274 276 278 278 278 280 282 284 286 289 291 293 294 296 296 297 298 299 299 300 300 301 301 302 304 305 305 304 304 304 305 308 311 313 315 317 319 321 323 324 325 324 324 323 323 322 321 321 321 321 321 320 319 318 316 313 310 305 300 296 291 286 281
274 276 278 279 280 282 285 288 291 293 294 296 297 298 298 298 299 300 300 301 301 301 302 303 304 304 303 302 302 304 306 309 312 313 315 317 319 321 323 323 323 323 323 323 322 322 321 321 321 321 321 321 320 319 317 314 310 307 303 299 295 290 286
276 277 278 280 282 284 288 291 293 294 296 297 297 298 298 299 299 300 301 301 301 302 303 303 303 302 301 301 302 305 307 310 312 313 315 317 319 321 322 322 322 322 323 323 322 322 322 322 321 321 321 321 320 318 316 313 310 307 304 300 297 294 291
277 277 279 281 284 287 289 292 293 295 295 296 297 297 297 298 299 300 301 301 301 302 302 301 301 300 300 301 303 306 308 310 312 313 315 317 319 320 320 320 321 322 322 322 322 322 321 321 321 321 321 321 320 318 315 313 310 307 304 301 298 296 293
278 278 280 282 285 288 291 293 294 295 295 296 296 296 296 297 298 299 300 300 300 300 300 300 299 300 300 302 304 306 308 309 311 313 315 317 318 319 319 319 320 321 322 321 321 321 321 321 321 321 321 321 320 319 316 313 310 307 304 301 299 296 294
279 281 283 286 288 290 292 294 294 295 295 295 295 295 296 296 297 298 298 298 298 298 298 298 299 299 301 303 305 307 308 309 311 313 315 316 317 318 318 319 320 321 321 320 320 321 321 321 321 321 321 321 320 319 316 313 310 307 304 301 299 296 294
283 285 287 289 290 291 292 293 293 293 293 293 294 294 295 295 296 296 296 296 297 297 297 297 298 299 301 304 305 307 308 309 311 313 315 316 317 317 317 318 319 320 320 320 321 321 321 321 321 321 321 321 320 318 315 312 310 307 305 303 301 299 296
285 287 289 290 291 291 291 291 291 291 291 292 292 293 293 294 294 294 295 295 295 295 295 296 298 300 302 304 306 307 308 310 312 313 314 315 316 316 317 318 319 319 320 320 320 320 320 321 321 321 321 320 319 316 314 312 311 309 307 305 303 301 298
283 286 288 289 290 290 290 290 290 290 290 290 291 291 292 292 293 293 293 294 294 294 295 296 298 301 303 305 306 307 309 310 311 312 314 315 315 316 317 318 319 319 319 320 319 320 320 321 321 321 321 319 317 316 314 313 312 311 310 308 305 302 300
283 286 287 288 288 289 290 290 290 290 289 289 290 290 291 291 291 292 292 293 293 294 295 297 299 301 303 305 306 308 309 310 311 312 313 314 315 316 317 318 318 318 319 319 319 319 320 321 321 321 320 318 317 316 315 314 314 313 312 310 307 304 302
284 285 286 286 287 289 289 290 289 289 289 289 289 289 290 290 291 291 292 292 293 294 295 298 300 302 304 305 306 307 308 309 311 312 313 314 315 316 317 317 317 318 318 318 318 319 320 321 321 320 319 318 317 317 317 316 316 316 314 312 309 306 304
283 283 284 285 286 287 287 288 289 289 289 289 289 289 289 290 290 291 291 292 293 295 297 299 301 302 304 305 306 307 308 309 310 312 313 314 315 316 316 316 317 317 318 318 318 320 320 320 320 319 319 319 319 319 319 319 318 318 316 314 311 308 305
280 281 281 282 283 285 286 286 288 288 289 289 289 289 289 290 290 291 292 293 294 296 298 299 300 302 303 304 305 306 307 309 310 311 313 314 314 315 315 316 317 317 317 318 319 320 320 319 320 320 319 320 320 320 320 321 320 319 318 315 312 309 307
279 280 280 280 282 283 285 286 287 288 288 289 289 289 290 290 291 292 293 294 295 296 297 298 299 300 301 303 304 306 308 309 310 311 313 314 314 315 316 316 317 317 318 319 319 319 319 319 320 320 320 321 321 321 322 322 322 320 318 316 314 311 308
280 282 282 282 283 284 285 286 287 287 288 288 289 289 290 290 291 292 292 293 294 295 296 297 298 299 301 303 305 306 308 309 311 312 313 313 314 315 316 316 317 317 318 318 318 318 319 320 321 321 321 322 322 322 323 323 323 321 319 318 316 314 311
282 284 284 283 284 285 286 286 287 287 287 287 288 288 289 289 289 290 291 291 292 294 295 296 298 299 301 304 305 307 308 310 311 312 313 314 314 315 316 316 317 317 317 317 318 319 320 321 321 322 322 322 323 323 324 324 324 323 322 321 319 317 315
281 282 282 282 283 285 285 286 286 286 286 286 286 286 287 287 287 288 289 290 292 294 295 297 299 301 303 304 306 307 309 310 312 312 313 313 314 315 316 316 316 316 317 318 319 320 321 321 322 322 323 323 323 324 325 326 326 325 324 323 321 320 318
278 278 279 280 282 282 283 284 284 284 284 284 285 285 285 285 286 287 288 291 293 294 296 298 300 302 303 304 306 308 310 311 311 312 313 313 314 315 315 315 315 316 318 319 320 320 321 322 322 323 323 323 323 324 326 327 327 327 326 325 323 321 320
276 277 278 278 279 280 281 281 281 282 283 283 283 283 284 285 286 287 289 292 294 295 297 299 300 302 303 305 307 308 310 310 311 312 312 313 314 314 314 315 316 318 319 320 320 321 322 322 323 323 323 324 324 325 327 329 329 329 328 327 325 323 321
275 276 277 277 277 278 278 278 279 280 281 282 282 283 284 285 286 288 290 292 294 296 297 299 301 302 304 306 307 309 310 310 311 312 312 313 313 314 314 316 317 319 319 320 320 321 322 322 323 323 324 324 324 326 329 330 330 330 330 329 327 325 322
274 275 276 276 276 276 276 277 278 280 280 281 282 282 284 285 287 289 291 293 294 296 297 299 301 303 305 306 307 309 310 310 311 311 312 312 313 314 316 317 318 319 320 320 321 321 321 322 323 324 324 325 325 328 330 331 332 332 332 330 329 326 323